owner,sensor,date,latitude,longitude,vertical_datum,direction_of_sea_water_velocity,sea_water_speed,upward_sea_water_velocity,qcFlag 
TABS,ioos:station:wmo:42044:1,2011-02-01T00:00:00Z,26.1914,-97.0507,2.0,359.4960506,15.91061595,-99999.0,'11111222,11144222,99999999' 
TABS,ioos:station:wmo:42044:1,2011-02-01T00:30:00Z,26.1914,-97.0507,2.0,354.2727978,16.93453867,-99999.0,'11111222,11111222,99999999' 
TABS,ioos:station:wmo:42044:1,2011-02-01T01:00:00Z,26.1914,-97.0507,2.0,350.0335424,18.48902648,-99999.0,'11111222,11111222,99999999' 
TABS,ioos:station:wmo:42044:1,2011-02-01T01:30:00Z,26.1914,-97.0507,2.0,345.4657894,17.01451733,-99999.0,'11111222,11111222,99999999' 
TABS,ioos:station:wmo:42044:1,2011-02-01T02:00:00Z,26.1914,-97.0507,2.0,349.752229,22.5395763,-99999.0,'11111222,11111222,99999999' 
TABS,ioos:station:wmo:42044:1,2011-02-01T02:30:00Z,26.1914,-97.0507,2.0,347.7997703,24.22719134,-99999.0,'11111222,11111222,99999999' 
TABS,ioos:station:wmo:42044:1,2011-02-01T03:00:00Z,26.1914,-97.0507,2.0,348.0800325,23.38425325,-99999.0,'11111222,11111222,99999999' 
TABS,ioos:station:wmo:42044:1,2011-02-01T03:30:00Z,26.1914,-97.0507,2.0,340.2820442,27.53453286,-99999.0,'11111222,11111222,99999999' 
TABS,ioos:station:wmo:42044:1,2011-02-01T04:00:00Z,26.1914,-97.0507,2.0,345.649971,27.43604199,-99999.0,'11111222,11111222,99999999' 
TABS,ioos:station:wmo:42044:1,2011-02-01T04:30:00Z,26.1914,-97.0507,2.0,348.0069907,28.77816707,-99999.0,'11111222,11111222,99999999' 
TABS,ioos:station:wmo:42044:1,2011-02-01T05:00:00Z,26.1914,-97.0507,2.0,338.1955614,32.33327234,-99999.0,'11111222,11111222,99999999' 
TABS,ioos:station:wmo:42044:1,2011-02-01T05:30:00Z,26.1914,-97.0507,2.0,345.4859781,34.59406018,-99999.0,'11111222,11111222,99999999' 
TABS,ioos:station:wmo:42044:1,2011-02-01T06:00:00Z,26.1914,-97.0507,2.0,348.5093591,38.50171165,-99999.0,'11111222,11111222,99999999' 
TABS,ioos:station:wmo:42044:1,2011-02-01T06:30:00Z,26.1914,-97.0507,2.0,349.0796139,40.69699866,-99999.0,'11111222,11111222,99999999' 
TABS,ioos:station:wmo:42044:1,2011-02-01T07:00:00Z,26.1914,-97.0507,2.0,349.4757554,39.19945408,-99999.0,'11111222,11111222,99999999' 
TABS,ioos:station:wmo:42044:1,2011-02-01T07:30:00Z,26.1914,-97.0507,2.0,352.1725553,40.45697097,-99999.0,'11111222,11111222,99999999' 
TABS,ioos:station:wmo:42044:1,2011-02-01T08:00:00Z,26.1914,-97.0507,2.0,354.3200924,39.30297953,-99999.0,'11111222,11111222,99999999' 
TABS,ioos:station:wmo:42044:1,2011-02-01T08:30:00Z,26.1914,-97.0507,2.0,354.7297578,40.93305755,-99999.0,'11111222,11111222,99999999' 
TABS,ioos:station:wmo:42044:1,2011-02-01T09:00:00Z,26.1914,-97.0507,2.0,357.896923,41.68808583,-99999.0,'11111222,11111222,99999999' 
TABS,ioos:station:wmo:42044:1,2011-02-01T09:30:00Z,26.1914,-97.0507,2.0,355.8637093,44.91700791,-99999.0,'11111222,11111222,99999999' 
TABS,ioos:station:wmo:42044:1,2011-02-01T10:00:00Z,26.1914,-97.0507,2.0,357.0259941,45.29100794,-99999.0,'11111222,11111222,99999999' 
TABS,ioos:station:wmo:42044:1,2011-02-01T10:30:00Z,26.1914,-97.0507,2.0,2.149155441,47.20319693,-99999.0,'11111222,11111222,99999999' 
TABS,ioos:station:wmo:42044:1,2011-02-01T11:00:00Z,26.1914,-97.0507,2.0,2.301994188,45.06636218,-99999.0,'11111222,11111222,99999999' 
TABS,ioos:station:wmo:42044:1,2011-02-01T11:30:00Z,26.1914,-97.0507,2.0,10.84495137,48.31284094,-99999.0,'11111222,11111222,99999999' 
TABS,ioos:station:wmo:42044:1,2011-02-01T12:00:00Z,26.1914,-97.0507,2.0,15.27806729,46.33760999,-99999.0,'11111222,11111222,99999999' 
TABS,ioos:station:wmo:42044:1,2011-02-01T12:30:00Z,26.1914,-97.0507,2.0,18.74067974,46.84348514,-99999.0,'11111222,11111222,99999999' 
TABS,ioos:station:wmo:42044:1,2011-02-01T13:00:00Z,26.1914,-97.0507,2.0,21.69705833,44.79350399,-99999.0,'11111222,11111222,99999999' 
TABS,ioos:station:wmo:42044:1,2011-02-01T13:30:00Z,26.1914,-97.0507,2.0,21.7941299,42.9067652,-99999.0,'11111222,11111222,99999999' 
TABS,ioos:station:wmo:42044:1,2011-02-01T14:00:00Z,26.1914,-97.0507,2.0,29.25232623,41.6858945,-99999.0,'11111222,11111222,99999999' 
TABS,ioos:station:wmo:42044:1,2011-02-01T14:30:00Z,26.1914,-97.0507,2.0,32.28117567,42.52230709,-99999.0,'11111222,11111222,99999999' 
TABS,ioos:station:wmo:42044:1,2011-02-01T15:00:00Z,26.1914,-97.0507,2.0,46.35207785,31.46794083,-99999.0,'11111222,11111222,99999999' 
TABS,ioos:station:wmo:42044:1,2011-02-01T15:30:00Z,26.1914,-97.0507,2.0,56.71220032,27.65803319,-99999.0,'11111222,11111222,99999999' 
TABS,ioos:station:wmo:42044:1,2011-02-01T16:00:00Z,26.1914,-97.0507,2.0,64.89283901,19.16036012,-99999.0,'11111222,11111222,99999999' 
TABS,ioos:station:wmo:42044:1,2011-02-01T16:30:00Z,26.1914,-97.0507,2.0,93.70512996,16.09363849,-99999.0,'11111222,11111222,99999999' 
TABS,ioos:station:wmo:42044:1,2011-02-01T17:00:00Z,26.1914,-97.0507,2.0,121.7201182,12.99043494,-99999.0,'11111222,11111222,99999999' 
TABS,ioos:station:wmo:42044:1,2011-02-01T17:30:00Z,26.1914,-97.0507,2.0,150.6217169,15.30868054,-99999.0,'11111222,11111222,99999999' 
TABS,ioos:station:wmo:42044:1,2011-02-01T18:00:00Z,26.1914,-97.0507,2.0,158.9481876,17.45499928,-99999.0,'11111222,11111222,99999999' 
TABS,ioos:station:wmo:42044:1,2011-02-01T18:30:00Z,26.1914,-97.0507,2.0,175.2538744,24.17287943,-99999.0,'11111222,11111222,99999999' 
TABS,ioos:station:wmo:42044:1,2011-02-01T19:00:00Z,26.1914,-97.0507,2.0,181.2990145,28.66736995,-99999.0,'11111222,11111222,99999999' 
TABS,ioos:station:wmo:42044:1,2011-02-01T19:30:00Z,26.1914,-97.0507,2.0,180.7877712,29.81281939,-99999.0,'11111222,11111222,99999999' 
TABS,ioos:station:wmo:42044:1,2011-02-01T20:00:00Z,26.1914,-97.0507,2.0,183.9793262,30.40330574,-99999.0,'11111222,11111222,99999999' 
TABS,ioos:station:wmo:42044:1,2011-02-01T20:30:00Z,26.1914,-97.0507,2.0,183.7517925,33.16107658,-99999.0,'11111222,11111222,99999999' 
TABS,ioos:station:wmo:42044:1,2011-02-01T21:00:00Z,26.1914,-97.0507,2.0,187.8701911,37.75564726,-99999.0,'11111222,11111222,99999999' 
TABS,ioos:station:wmo:42044:1,2011-02-01T21:30:00Z,26.1914,-97.0507,2.0,189.6361118,35.72406472,-99999.0,'11111222,11111222,99999999' 
TABS,ioos:station:wmo:42044:1,2011-02-01T22:00:00Z,26.1914,-97.0507,2.0,191.6876634,39.53983434,-99999.0,'11111222,11111222,99999999' 
TABS,ioos:station:wmo:42044:1,2011-02-01T22:30:00Z,26.1914,-97.0507,2.0,191.5483763,37.66246938,-99999.0,'11111222,11111222,99999999' 
TABS,ioos:station:wmo:42044:1,2011-02-01T23:00:00Z,26.1914,-97.0507,2.0,188.8148403,40.45788427,-99999.0,'11111222,11111222,99999999' 
TABS,ioos:station:wmo:42044:1,2011-02-01T23:30:00Z,26.1914,-97.0507,2.0,189.4620896,40.57202608,-99999.0,'11111222,11111222,99999999' 
TABS,ioos:station:wmo:42044:1,2011-02-02T00:00:00Z,26.1914,-97.0507,2.0,184.1853397,43.2954732,-99999.0,'11111222,11111222,99999999' 
TABS,ioos:station:wmo:42044:1,2011-02-02T00:30:00Z,26.1914,-97.0507,2.0,183.939516,47.01109337,-99999.0,'11111222,11111222,99999999' 
TABS,ioos:station:wmo:42044:1,2011-02-02T01:00:00Z,26.1914,-97.0507,2.0,181.3584783,44.28245025,-99999.0,'11111222,11111222,99999999' 
TABS,ioos:station:wmo:42044:1,2011-02-02T01:30:00Z,26.1914,-97.0507,2.0,183.8055341,45.80099999,-99999.0,'11111222,11111222,99999999' 
TABS,ioos:station:wmo:42044:1,2011-02-02T02:00:00Z,26.1914,-97.0507,2.0,180.6298286,42.74258415,-99999.0,'11111222,11111222,99999999' 
TABS,ioos:station:wmo:42044:1,2011-02-02T02:30:00Z,26.1914,-97.0507,2.0,182.4433007,44.33030792,-99999.0,'11111222,11111222,99999999' 
TABS,ioos:station:wmo:42044:1,2011-02-02T03:00:00Z,26.1914,-97.0507,2.0,178.810519,45.28975602,-99999.0,'11111222,11111222,99999999' 
TABS,ioos:station:wmo:42044:1,2011-02-02T03:30:00Z,26.1914,-97.0507,2.0,179.1200335,48.19568134,-99999.0,'11111222,11111222,99999999' 
TABS,ioos:station:wmo:42044:1,2011-02-02T04:00:00Z,26.1914,-97.0507,2.0,183.4093613,49.93839605,-99999.0,'11111222,11111222,99999999' 
TABS,ioos:station:wmo:42044:1,2011-02-02T04:30:00Z,26.1914,-97.0507,2.0,181.0020763,50.30769722,-99999.0,'11111222,11111222,99999999' 
TABS,ioos:station:wmo:42044:1,2011-02-02T05:00:00Z,26.1914,-97.0507,2.0,185.0719722,54.74437414,-99999.0,'11111222,11111222,99999999' 
TABS,ioos:station:wmo:42044:1,2011-02-02T05:30:00Z,26.1914,-97.0507,2.0,186.3375028,51.36391146,-99999.0,'11111222,11111222,99999999' 
TABS,ioos:station:wmo:42044:1,2011-02-02T06:00:00Z,26.1914,-97.0507,2.0,181.64563,49.44039644,-99999.0,'11111222,11111222,99999999' 
TABS,ioos:station:wmo:42044:1,2011-02-02T06:30:00Z,26.1914,-97.0507,2.0,183.8696756,50.52520361,-99999.0,'11111222,11111222,99999999' 
TABS,ioos:station:wmo:42044:1,2011-02-02T07:00:00Z,26.1914,-97.0507,2.0,175.9926945,46.79439389,-99999.0,'11111222,11111222,99999999' 
TABS,ioos:station:wmo:42044:1,2011-02-02T07:30:00Z,26.1914,-97.0507,2.0,170.8994796,45.01662915,-99999.0,'11111222,11111222,99999999' 
TABS,ioos:station:wmo:42044:1,2011-02-02T08:00:00Z,26.1914,-97.0507,2.0,172.0263268,43.97513502,-99999.0,'11111222,11111222,99999999' 
TABS,ioos:station:wmo:42044:1,2011-02-02T08:30:00Z,26.1914,-97.0507,2.0,176.7191431,48.22903793,-99999.0,'11111222,11111222,99999999' 
TABS,ioos:station:wmo:42044:1,2011-02-02T09:00:00Z,26.1914,-97.0507,2.0,171.423664,44.32562464,-99999.0,'11111222,11111222,99999999' 
TABS,ioos:station:wmo:42044:1,2011-02-02T09:30:00Z,26.1914,-97.0507,2.0,172.2979864,45.21791349,-99999.0,'11111222,11111222,99999999' 
TABS,ioos:station:wmo:42044:1,2011-02-02T10:00:00Z,26.1914,-97.0507,2.0,173.1375386,44.3577682,-99999.0,'11111222,11111222,99999999' 
TABS,ioos:station:wmo:42044:1,2011-02-02T10:30:00Z,26.1914,-97.0507,2.0,177.1932797,38.39605318,-99999.0,'11111222,11111222,99999999' 
TABS,ioos:station:wmo:42044:1,2011-02-02T11:00:00Z,26.1914,-97.0507,2.0,169.2911323,41.11605039,-99999.0,'11111222,11111222,99999999' 
TABS,ioos:station:wmo:42044:1,2011-02-02T11:30:00Z,26.1914,-97.0507,2.0,179.7842687,34.5602445,-99999.0,'11111222,11111222,99999999' 
TABS,ioos:station:wmo:42044:1,2011-02-02T12:00:00Z,26.1914,-97.0507,2.0,182.7191223,42.99841974,-99999.0,'11111222,11111222,99999999' 
TABS,ioos:station:wmo:42044:1,2011-02-02T12:30:00Z,26.1914,-97.0507,2.0,180.2459738,34.91032226,-99999.0,'11111222,11111222,99999999' 
TABS,ioos:station:wmo:42044:1,2011-02-02T13:00:00Z,26.1914,-97.0507,2.0,175.8568375,34.8811482,-99999.0,'11111222,11111222,99999999' 
TABS,ioos:station:wmo:42044:1,2011-02-02T13:30:00Z,26.1914,-97.0507,2.0,175.1429995,37.79570875,-99999.0,'11111222,11111222,99999999' 
TABS,ioos:station:wmo:42044:1,2011-02-02T14:00:00Z,26.1914,-97.0507,2.0,167.1236071,39.53413335,-99999.0,'11111222,11111222,99999999' 
TABS,ioos:station:wmo:42044:1,2011-02-02T14:30:00Z,26.1914,-97.0507,2.0,175.9656,32.55065284,-99999.0,'11111222,11111222,99999999' 
TABS,ioos:station:wmo:42044:1,2011-02-02T15:00:00Z,26.1914,-97.0507,2.0,167.7792963,32.4554356,-99999.0,'11111222,11111222,99999999' 
TABS,ioos:station:wmo:42044:1,2011-02-02T15:30:00Z,26.1914,-97.0507,2.0,178.0688195,33.23887483,-99999.0,'11111222,11111222,99999999' 
TABS,ioos:station:wmo:42044:1,2011-02-02T16:00:00Z,26.1914,-97.0507,2.0,180.1694032,33.78014802,-99999.0,'11111222,11111222,99999999' 
TABS,ioos:station:wmo:42044:1,2011-02-02T16:30:00Z,26.1914,-97.0507,2.0,178.4852283,35.94255695,-99999.0,'11111222,11111222,99999999' 
TABS,ioos:station:wmo:42044:1,2011-02-02T17:00:00Z,26.1914,-97.0507,2.0,177.0143555,37.44081463,-99999.0,'11111222,11111222,99999999' 
TABS,ioos:station:wmo:42044:1,2011-02-02T17:30:00Z,26.1914,-97.0507,2.0,183.1663624,38.3785982,-99999.0,'11111222,11111222,99999999' 
TABS,ioos:station:wmo:42044:1,2011-02-02T18:00:00Z,26.1914,-97.0507,2.0,177.9193887,38.56541974,-99999.0,'11111222,11111222,99999999' 
TABS,ioos:station:wmo:42044:1,2011-02-02T18:30:00Z,26.1914,-97.0507,2.0,186.4190421,29.60561602,-99999.0,'11111222,11111222,99999999' 
TABS,ioos:station:wmo:42044:1,2011-02-02T19:00:00Z,26.1914,-97.0507,2.0,191.5844312,30.67487734,-99999.0,'11111222,11111222,99999999' 
TABS,ioos:station:wmo:42044:1,2011-02-02T19:30:00Z,26.1914,-97.0507,2.0,177.8052273,32.90413348,-99999.0,'11111222,11111222,99999999' 
TABS,ioos:station:wmo:42044:1,2011-02-02T20:00:00Z,26.1914,-97.0507,2.0,178.9275858,30.99542708,-99999.0,'11111222,11111222,99999999' 
TABS,ioos:station:wmo:42044:1,2011-02-02T20:30:00Z,26.1914,-97.0507,2.0,183.3382523,33.65711812,-99999.0,'11111222,11111222,99999999' 
TABS,ioos:station:wmo:42044:1,2011-02-02T21:00:00Z,26.1914,-97.0507,2.0,183.6247861,30.84170715,-99999.0,'11111222,11111222,99999999' 
TABS,ioos:station:wmo:42044:1,2011-02-02T21:30:00Z,26.1914,-97.0507,2.0,180.0564431,30.34001483,-99999.0,'11111222,11111222,99999999' 
TABS,ioos:station:wmo:42044:1,2011-02-02T22:00:00Z,26.1914,-97.0507,2.0,172.4423611,31.55409482,-99999.0,'11111222,11111222,99999999' 
TABS,ioos:station:wmo:42044:1,2011-02-02T22:30:00Z,26.1914,-97.0507,2.0,189.6818577,30.85956092,-99999.0,'11111222,11111222,99999999' 
TABS,ioos:station:wmo:42044:1,2011-02-02T23:00:00Z,26.1914,-97.0507,2.0,185.2580936,27.60617685,-99999.0,'11111222,11111222,99999999' 
TABS,ioos:station:wmo:42044:1,2011-02-02T23:30:00Z,26.1914,-97.0507,2.0,170.9058157,30.43252536,-99999.0,'11111222,11111222,99999999' 
TABS,ioos:station:wmo:42044:1,2011-02-03T00:00:00Z,26.1914,-97.0507,2.0,175.7813966,27.05329,-99999.0,'11111222,11111222,99999999' 
TABS,ioos:station:wmo:42044:1,2011-02-03T00:30:00Z,26.1914,-97.0507,2.0,175.6246197,29.8870942,-99999.0,'11111222,11111222,99999999' 
TABS,ioos:station:wmo:42044:1,2011-02-03T01:00:00Z,26.1914,-97.0507,2.0,185.3322132,27.43874815,-99999.0,'11111222,11111222,99999999' 
TABS,ioos:station:wmo:42044:1,2011-02-03T01:30:00Z,26.1914,-97.0507,2.0,178.3183187,26.24129951,-99999.0,'11111222,11111222,99999999' 
TABS,ioos:station:wmo:42044:1,2011-02-03T02:00:00Z,26.1914,-97.0507,2.0,191.3382933,31.43349806,-99999.0,'11111222,11111222,99999999' 
TABS,ioos:station:wmo:42044:1,2011-02-03T02:30:00Z,26.1914,-97.0507,2.0,189.4298031,29.17424892,-99999.0,'11111222,11111222,99999999' 
TABS,ioos:station:wmo:42044:1,2011-02-03T03:00:00Z,26.1914,-97.0507,2.0,175.2789105,27.82439577,-99999.0,'11111222,11111222,99999999' 
TABS,ioos:station:wmo:42044:1,2011-02-03T03:30:00Z,26.1914,-97.0507,2.0,175.5280237,27.06238164,-99999.0,'11111222,11111222,99999999' 
TABS,ioos:station:wmo:42044:1,2011-02-03T04:00:00Z,26.1914,-97.0507,2.0,172.001097,26.51798823,-99999.0,'11111222,11111222,99999999' 
TABS,ioos:station:wmo:42044:1,2011-02-03T04:30:00Z,26.1914,-97.0507,2.0,168.3032903,27.03130223,-99999.0,'11111222,11111222,99999999' 
TABS,ioos:station:wmo:42044:1,2011-02-03T05:00:00Z,26.1914,-97.0507,2.0,171.055496,29.45821447,-99999.0,'11111222,11111222,99999999' 
TABS,ioos:station:wmo:42044:1,2011-02-03T05:30:00Z,26.1914,-97.0507,2.0,173.0790102,30.62313015,-99999.0,'11111222,11111222,99999999' 
TABS,ioos:station:wmo:42044:1,2011-02-03T06:00:00Z,26.1914,-97.0507,2.0,184.4456501,33.54092426,-99999.0,'11111222,11111222,99999999' 
TABS,ioos:station:wmo:42044:1,2011-02-03T06:30:00Z,26.1914,-97.0507,2.0,181.3469848,29.34811238,-99999.0,'11111222,11111222,99999999' 
TABS,ioos:station:wmo:42044:1,2011-02-03T07:00:00Z,26.1914,-97.0507,2.0,175.6918696,31.9502676,-99999.0,'11111222,11111222,99999999' 
TABS,ioos:station:wmo:42044:1,2011-02-03T07:30:00Z,26.1914,-97.0507,2.0,177.0328529,32.84402533,-99999.0,'11111222,11111222,99999999' 
TABS,ioos:station:wmo:42044:1,2011-02-03T08:00:00Z,26.1914,-97.0507,2.0,174.870772,34.89974212,-99999.0,'11111222,11111222,99999999' 
TABS,ioos:station:wmo:42044:1,2011-02-03T08:30:00Z,26.1914,-97.0507,2.0,171.1331342,40.48379429,-99999.0,'11111222,11111222,99999999' 
TABS,ioos:station:wmo:42044:1,2011-02-03T09:00:00Z,26.1914,-97.0507,2.0,176.629181,40.48002594,-99999.0,'11111222,11111222,99999999' 
TABS,ioos:station:wmo:42044:1,2011-02-03T09:30:00Z,26.1914,-97.0507,2.0,172.9478691,47.65046275,-99999.0,'11111222,11111222,99999999' 
TABS,ioos:station:wmo:42044:1,2011-02-03T10:00:00Z,26.1914,-97.0507,2.0,175.3850902,45.36706845,-99999.0,'11111222,11111222,99999999' 
TABS,ioos:station:wmo:42044:1,2011-02-03T10:30:00Z,26.1914,-97.0507,2.0,172.2398943,44.21489568,-99999.0,'11111222,11111222,99999999' 
TABS,ioos:station:wmo:42044:1,2011-02-03T11:00:00Z,26.1914,-97.0507,2.0,170.1527337,44.55641817,-99999.0,'11111222,11111222,99999999' 
TABS,ioos:station:wmo:42044:1,2011-02-03T11:30:00Z,26.1914,-97.0507,2.0,173.5321562,48.64962487,-99999.0,'11111222,11111222,99999999' 
TABS,ioos:station:wmo:42044:1,2011-02-03T12:00:00Z,26.1914,-97.0507,2.0,170.2269731,48.83872439,-99999.0,'11111222,11111222,99999999' 
TABS,ioos:station:wmo:42044:1,2011-02-03T12:30:00Z,26.1914,-97.0507,2.0,173.0393437,46.2105713,-99999.0,'11111222,11111222,99999999' 
TABS,ioos:station:wmo:42044:1,2011-02-03T13:00:00Z,26.1914,-97.0507,2.0,173.2207909,50.32180939,-99999.0,'11111222,11111222,99999999' 
TABS,ioos:station:wmo:42044:1,2011-02-03T13:30:00Z,26.1914,-97.0507,2.0,179.7917736,44.07029045,-99999.0,'11111222,11111222,99999999' 
TABS,ioos:station:wmo:42044:1,2011-02-03T14:00:00Z,26.1914,-97.0507,2.0,170.3861219,49.16040073,-99999.0,'11111222,11111222,99999999' 
TABS,ioos:station:wmo:42044:1,2011-02-03T14:30:00Z,26.1914,-97.0507,2.0,177.0681791,43.40680707,-99999.0,'11111222,11111222,99999999' 
TABS,ioos:station:wmo:42044:1,2011-02-03T15:00:00Z,26.1914,-97.0507,2.0,172.7502788,45.09045354,-99999.0,'11111222,11111222,99999999' 
TABS,ioos:station:wmo:42044:1,2011-02-03T15:30:00Z,26.1914,-97.0507,2.0,171.1764545,52.4810642,-99999.0,'11111222,11111222,99999999' 
TABS,ioos:station:wmo:42044:1,2011-02-03T16:00:00Z,26.1914,-97.0507,2.0,182.5497824,46.52607119,-99999.0,'11111222,11111222,99999999' 
TABS,ioos:station:wmo:42044:1,2011-02-03T16:30:00Z,26.1914,-97.0507,2.0,174.9905639,46.49759134,-99999.0,'11111222,11111222,99999999' 
TABS,ioos:station:wmo:42044:1,2011-02-03T17:00:00Z,26.1914,-97.0507,2.0,173.4621431,51.9075428,-99999.0,'11111222,11111222,99999999' 
TABS,ioos:station:wmo:42044:1,2011-02-03T17:30:00Z,26.1914,-97.0507,2.0,182.770586,47.16514073,-99999.0,'11111222,11111222,99999999' 
TABS,ioos:station:wmo:42044:1,2011-02-03T18:00:00Z,26.1914,-97.0507,2.0,169.3374212,48.58891437,-99999.0,'11111222,11111222,99999999' 
TABS,ioos:station:wmo:42044:1,2011-02-03T18:30:00Z,26.1914,-97.0507,2.0,174.3312685,48.79862703,-99999.0,'11111222,11111222,99999999' 
TABS,ioos:station:wmo:42044:1,2011-02-03T19:00:00Z,26.1914,-97.0507,2.0,169.0300048,47.24324819,-99999.0,'11111222,11111222,99999999' 
TABS,ioos:station:wmo:42044:1,2011-02-03T19:30:00Z,26.1914,-97.0507,2.0,168.1549761,45.79511328,-99999.0,'11111222,11111222,99999999' 
TABS,ioos:station:wmo:42044:1,2011-02-03T20:00:00Z,26.1914,-97.0507,2.0,175.9316806,46.6575578,-99999.0,'11111222,11111222,99999999' 
TABS,ioos:station:wmo:42044:1,2011-02-03T20:30:00Z,26.1914,-97.0507,2.0,169.0034953,56.25283371,-99999.0,'11111222,11111222,99999999' 
TABS,ioos:station:wmo:42044:1,2011-02-03T21:00:00Z,26.1914,-97.0507,2.0,175.4449284,50.36907881,-99999.0,'11111222,11111222,99999999' 
TABS,ioos:station:wmo:42044:1,2011-02-03T21:30:00Z,26.1914,-97.0507,2.0,173.3177466,56.63471197,-99999.0,'11111222,11111222,99999999' 
TABS,ioos:station:wmo:42044:1,2011-02-03T22:00:00Z,26.1914,-97.0507,2.0,171.4189667,57.70594164,-99999.0,'11111222,11111222,99999999' 
TABS,ioos:station:wmo:42044:1,2011-02-03T22:30:00Z,26.1914,-97.0507,2.0,179.7999218,51.60031395,-99999.0,'11111222,11111222,99999999' 
TABS,ioos:station:wmo:42044:1,2011-02-03T23:00:00Z,26.1914,-97.0507,2.0,180.2654552,45.29048686,-99999.0,'11111222,11111222,99999999' 
TABS,ioos:station:wmo:42044:1,2011-02-03T23:30:00Z,26.1914,-97.0507,2.0,178.3639033,47.63941645,-99999.0,'11111222,11111222,99999999' 
TABS,ioos:station:wmo:42044:1,2011-02-04T00:00:00Z,26.1914,-97.0507,2.0,164.4397529,48.61162927,-99999.0,'11111222,11111222,99999999' 
TABS,ioos:station:wmo:42044:1,2011-02-04T00:30:00Z,26.1914,-97.0507,2.0,178.1149075,49.55681386,-99999.0,'11111222,11111222,99999999' 
TABS,ioos:station:wmo:42044:1,2011-02-04T01:00:00Z,26.1914,-97.0507,2.0,176.613329,50.44809213,-99999.0,'11111222,11111222,99999999' 
TABS,ioos:station:wmo:42044:1,2011-02-04T01:30:00Z,26.1914,-97.0507,2.0,171.8380869,53.81507688,-99999.0,'11111222,11111222,99999999' 
TABS,ioos:station:wmo:42044:1,2011-02-04T02:00:00Z,26.1914,-97.0507,2.0,177.0539497,49.03479683,-99999.0,'11111222,11111222,99999999' 
TABS,ioos:station:wmo:42044:1,2011-02-04T02:30:00Z,26.1914,-97.0507,2.0,174.2334777,55.23951575,-99999.0,'11111222,11111222,99999999' 
TABS,ioos:station:wmo:42044:1,2011-02-04T03:00:00Z,26.1914,-97.0507,2.0,168.4171672,58.91983792,-99999.0,'11111222,11111222,99999999' 
TABS,ioos:station:wmo:42044:1,2011-02-04T03:30:00Z,26.1914,-97.0507,2.0,174.0867188,53.77612574,-99999.0,'11111222,11111222,99999999' 
TABS,ioos:station:wmo:42044:1,2011-02-04T04:00:00Z,26.1914,-97.0507,2.0,169.2973707,52.71701907,-99999.0,'11111222,11111222,99999999' 
TABS,ioos:station:wmo:42044:1,2011-02-04T04:30:00Z,26.1914,-97.0507,2.0,174.6693527,53.39089061,-99999.0,'11111222,11111222,99999999' 
TABS,ioos:station:wmo:42044:1,2011-02-04T05:00:00Z,26.1914,-97.0507,2.0,178.4263198,49.52867553,-99999.0,'11111222,11111222,99999999' 
TABS,ioos:station:wmo:42044:1,2011-02-04T05:30:00Z,26.1914,-97.0507,2.0,171.6630039,45.86465851,-99999.0,'11111222,11111222,99999999' 
TABS,ioos:station:wmo:42044:1,2011-02-04T06:00:00Z,26.1914,-97.0507,2.0,169.9031135,57.6122244,-99999.0,'11111222,11111222,99999999' 
TABS,ioos:station:wmo:42044:1,2011-02-04T06:30:00Z,26.1914,-97.0507,2.0,170.8175438,43.05167709,-99999.0,'11111222,11111222,99999999' 
TABS,ioos:station:wmo:42044:1,2011-02-04T07:00:00Z,26.1914,-97.0507,2.0,168.1976751,57.3013656,-99999.0,'11111222,11111222,99999999' 
TABS,ioos:station:wmo:42044:1,2011-02-04T07:30:00Z,26.1914,-97.0507,2.0,165.2204145,62.6425199,-99999.0,'11111222,11111222,99999999' 
TABS,ioos:station:wmo:42044:1,2011-02-04T08:00:00Z,26.1914,-97.0507,2.0,177.2460233,55.57417566,-99999.0,'11111222,11111222,99999999' 
TABS,ioos:station:wmo:42044:1,2011-02-04T08:30:00Z,26.1914,-97.0507,2.0,180.8936036,46.15561613,-99999.0,'11111222,11111222,99999999' 
TABS,ioos:station:wmo:42044:1,2011-02-04T09:00:00Z,26.1914,-97.0507,2.0,169.2107387,56.09153234,-99999.0,'11111222,11111222,99999999' 
TABS,ioos:station:wmo:42044:1,2011-02-04T09:30:00Z,26.1914,-97.0507,2.0,168.7264941,55.24592655,-99999.0,'11111222,11111222,99999999' 
TABS,ioos:station:wmo:42044:1,2011-02-04T10:00:00Z,26.1914,-97.0507,2.0,170.338817,54.52325192,-99999.0,'11111222,11111222,99999999' 
TABS,ioos:station:wmo:42044:1,2011-02-04T10:30:00Z,26.1914,-97.0507,2.0,166.589131,53.98194606,-99999.0,'11111222,11111222,99999999' 
TABS,ioos:station:wmo:42044:1,2011-02-04T11:00:00Z,26.1914,-97.0507,2.0,167.2349382,57.38835509,-99999.0,'11111222,11111222,99999999' 
TABS,ioos:station:wmo:42044:1,2011-02-04T11:30:00Z,26.1914,-97.0507,2.0,169.516912,53.53351474,-99999.0,'11111222,11111222,99999999' 
TABS,ioos:station:wmo:42044:1,2011-02-04T12:00:00Z,26.1914,-97.0507,2.0,173.6311399,44.44427747,-99999.0,'11111222,11111222,99999999' 
TABS,ioos:station:wmo:42044:1,2011-02-04T12:30:00Z,26.1914,-97.0507,2.0,178.2324966,46.69221027,-99999.0,'11111222,11111222,99999999' 
TABS,ioos:station:wmo:42044:1,2011-02-04T13:00:00Z,26.1914,-97.0507,2.0,169.2067117,51.74538627,-99999.0,'11111222,11111222,99999999' 
TABS,ioos:station:wmo:42044:1,2011-02-04T13:30:00Z,26.1914,-97.0507,2.0,171.3019796,48.66972057,-99999.0,'11111222,11111222,99999999' 
TABS,ioos:station:wmo:42044:1,2011-02-04T14:00:00Z,26.1914,-97.0507,2.0,171.626325,48.27461548,-99999.0,'11111222,11111222,99999999' 
TABS,ioos:station:wmo:42044:1,2011-02-04T14:30:00Z,26.1914,-97.0507,2.0,172.3806567,47.89283245,-99999.0,'11111222,11111222,99999999' 
TABS,ioos:station:wmo:42044:1,2011-02-04T15:00:00Z,26.1914,-97.0507,2.0,171.7187807,46.17140457,-99999.0,'11111222,11111222,99999999' 
TABS,ioos:station:wmo:42044:1,2011-02-04T15:30:00Z,26.1914,-97.0507,2.0,173.0481251,43.45948918,-99999.0,'11111222,11111222,99999999' 
TABS,ioos:station:wmo:42044:1,2011-02-04T16:00:00Z,26.1914,-97.0507,2.0,171.0076603,39.66752324,-99999.0,'11111222,11111222,99999999' 